Regional Weather Roundup
Issued by NWS

Home | Current Version | Previous Version | Graphics & Text | Print | Product List | Glossary On
Versions: 1 2 3 4 5 6 7 8 9 10 11 12 13 14 15 16 17 18 19 20 21 22 23 24 25 26 27 28 29
000
ASUS45 KBOI 240410
RWRID
WEATHER ROUNDUP FOR IDAHO
NATIONAL WEATHER SERVICE BOISE ID
1000 PM MDT THU OCT 23 2014

NOTE: "FAIR" INDICATES FEW OR NO CLOUDS BELOW 12000 FEET
WITH NO SIGNIFICANT WEATHER AND/OR OBSTRUCTIONS TO VISIBILITY

IDZ012-014-240500-
SOUTHWEST IDAHO


CITY           SKY/WX    TMP DP  RH WIND       PRES   REMARKS
BOISE          LGT RAIN  52  49  89 NE8       30.08S
CALDWELL       CLOUDY    52  45  76 E7        30.09R
MOUNTAIN HOME  CLOUDY    56  49  76 NW10      30.08R
$$

IDZ016-017-240500-
SOUTHCENTRAL IDAHO


CITY           SKY/WX    TMP DP  RH WIND       PRES   REMARKS
BURLEY         MOCLDY    47  38  71 SW6       30.11R
JEROME         CLOUDY    54  41  61 W9        30.09R
TWIN FALLS     HAZE      55  40  56 VRB3      30.11R VSB 3/4
$$

IDZ019>023-240500-
SOUTHEAST IDAHO


CITY           SKY/WX    TMP DP  RH WIND       PRES   REMARKS
IDAHO FALLS    MOCLDY    53  33  46 S10       30.11R
POCATELLO      CLEAR     44  33  65 S7        30.12R
REXBURG        CLOUDY    52  33  48 S7        30.11R
$$

IDZ006-010-011-018-031-032-240500-
CENTRAL IDAHO MOUNTAINS


CITY           SKY/WX    TMP DP  RH WIND       PRES   REMARKS
MCCALL         RAIN      42  39  89 CALM      30.06R FOG
HAILEY         CLOUDY    48  45  87 SE5       30.12S
STANLEY          N/A     41  39  93 CALM      30.11R
SALMON         CLOUDY    52  43  71 CALM      29.97R
CHALLIS        LGT RAIN  52  38  58 SW5       30.03R
$$

IDZ002-004-006-007-026-240500-
NORTHERN IDAHO


CITY           SKY/WX    TMP DP  RH WIND       PRES   REMARKS
LEWISTON       CLOUDY    54  47  77 E9        29.98R
LOWELL           N/A     51  50  96 CALM      30.02R
COEUR D`ALENE  CLOUDY    50  45  81 SW7       29.93R
MULLAN PASS    CLOUDY    34  33  96 SW9G22    29.94R WCI  27
$$



USA.gov is the U.S. government's official web portal to all federal, state and local government web resources and services.